Location: Newark
(45.4422°N, 16.2769°E)
Time: 19:29:05
(UTC+00:00)

Envisat - Visible Passes

Search period start: 21 November 2019 00:00
Search period end: 01 December 2019 00:00
Orbit: 764 x 766 km, 98.1° (Epoch: 21 November)

Date Brightness Start Highest point End Pass type
(mag) Time Alt. Az. Time Alt. Az. Time Alt. Az.
21 Nov 5.7 04:47:49 10° NE 04:51:44 22° E 04:55:38 10° SE visible
21 Nov 3.5 16:04:14 10° SE 16:08:51 36° ENE 16:13:28 10° N visible
21 Nov 4.8 17:43:27 10° SSW 17:47:54 31° W 17:52:24 10° NNW visible
22 Nov 3.4 17:05:55 10° S 17:10:57 65° WSW 17:16:02 10° NNW visible
23 Nov 4.8 05:12:43 10° NNE 05:17:26 37° E 05:22:07 10° SSE visible
23 Nov 3.0 16:29:14 10° SSE 16:34:12 60° ENE 16:39:14 10° N visible
23 Nov 5.6 18:10:11 10° SW 18:13:38 18° W 18:17:07 10° NW visible
24 Nov 5.9 04:36:57 10° NE 04:40:21 18° E 04:43:43 10° SE visible
24 Nov 3.8 15:53:18 10° SE 15:57:39 30° ENE 16:02:02 10° N visible
24 Nov 4.4 17:31:51 10° SSW 17:36:33 38° W 17:41:17 10° NNW visible
25 Nov 3.1 16:54:35 10° SSE 16:59:40 81° WSW 17:04:47 10° NNW visible
25 Nov 6.3 18:38:54 10° W 18:39:29 10° W 18:40:04 10° W visible
26 Nov 5.2 05:01:38 10° NE 05:06:05 30° E 05:10:31 10° SSE visible
26 Nov 3.2 16:18:07 10° SE 16:22:58 48° ENE 16:27:52 10° N visible
26 Nov 5.3 17:58:17 10° SW 18:02:15 23° W 18:06:14 10° NW visible
27 Nov 6.1 04:26:17 10° ENE 04:28:56 14° E 04:31:34 10° ESE visible
27 Nov 4.0 15:42:27 10° ESE 15:46:29 24° ENE 15:50:32 10° N visible
27 Nov 4.0 17:20:20 10° S 17:25:13 47° W 17:30:09 10° NNW visible
28 Nov 4.1 05:26:46 10° NNE 05:31:44 50° E 05:36:39 10° S visible
28 Nov 2.9 16:43:19 10° SSE 16:48:23 82° ENE 16:53:30 10° NNW visible
28 Nov 6.0 18:25:40 10° WSW 18:28:03 13° W 18:30:27 10° WNW visible
29 Nov 5.5 04:50:38 10° NE 04:54:43 24° E 04:58:47 10° SSE visible
29 Nov 3.4 16:07:04 10° SE 16:11:46 39° ENE 16:16:28 10° N visible
29 Nov 5.0 17:46:32 10° SSW 17:50:53 28° W 17:55:15 10° NW visible
30 Nov 6.3 04:16:09 10° ENE 04:17:29 11° E 04:18:50 10° ESE visible
30 Nov 3.5 17:08:54 10° S 17:13:54 60° W 17:18:57 10° NNW visible
